Home > Time Zones > World Clock > Weather > Spain > Palma > Past weeks

Flag for Spain Weather past 2 weeks in Palma, Majorca, Spain

Now
43 °F

Passing clouds.


Feels Like: 43 °F
Forecast: 43 / 62 °F
Wind: No wind

Location: Palma De Mallorca / Son San Juan

Current Time: Dec 23, 2014 at 6:38:34 AM

Latest Report: Dec 23, 2014 at 6:00 AM


Visibility: N/A

Pressure: 30.42 "Hg

Humidity: 100%

Dew point: 43 °F

Location of PalmaLocation

Historic Weather in Palma — Graph

°F

Palma temperature yesterday

Maximum temperature yesterday: 61 °F (at 12:00 PM)
Minimum temperature yesterday: 37 °F (at 8:30 AM)
Average temperature yesterday: 48 °F

Past Weeks' High & Low Weather Summary

 TemperatureHumidityPressure
High64 °F (Dec 11, 12:30 PM)100% (Dec 11, 8:30 PM)30.51 "Hg (Dec 11, 8:30 PM)
Low37 °F (Dec 12, 8:00 AM)30% (Dec 9, 11:30 AM)29.89 "Hg (Dec 16, 4:30 AM)
Average53 °F82%30.21 "Hg
* Reported Dec 8 5:00 AM — Dec 23 5:30 AM, Palma, Weather by CustomWeather, © 2014

Note: Actual official high and low records may vary slightly from our data, if they occured in-between our weather recording intervals... More about our weather records

Advertising

Palma weather history for previous 24 hours

 ConditionsComfort  
Time TempWeatherWind HumidityBarometerVisibility
5:30 AM
Dec 23
45 °FPassing clouds.No wind100%30.42 "HgN/A
4:30 AM46 °FPassing clouds.No wind93%30.42 "HgN/A
4:00 AM45 °FPassing clouds.No wind100%30.45 "HgN/A
3:30 AM43 °FPassing clouds.No wind100%30.45 "HgN/A
3:00 AM41 °FPassing clouds.No wind100%30.45 "HgN/A
2:30 AM43 °FPassing clouds.No wind100%30.45 "HgN/A
2:00 AM45 °FPassing clouds.No wind100%30.45 "HgN/A
1:30 AM45 °FPassing clouds.No wind100%30.45 "HgN/A
1:00 AM45 °FPassing clouds.No wind93%30.45 "HgN/A
12:30 AM43 °FPassing clouds.No wind100%30.45 "HgN/A
12:00 AM43 °FPassing clouds.No wind100%30.45 "HgN/A
11:30 PM
Dec 22
43 °FPassing clouds.1 mph100%30.48 "HgN/A
11:00 PM43 °FPassing clouds.1 mph100%30.48 "HgN/A
10:30 PM45 °FPassing clouds.No wind93%30.48 "HgN/A
10:00 PM45 °FPassing clouds.No wind93%30.48 "HgN/A
9:30 PM46 °FPassing clouds.No wind93%30.48 "HgN/A
9:00 PM46 °FPassing clouds.No wind93%30.48 "HgN/A
8:30 PM46 °FPassing clouds.1 mph93%30.48 "HgN/A
8:00 PM48 °FPassing clouds.3 mph100%30.45 "HgN/A
7:30 PM50 °FPassing clouds.3 mph94%30.45 "HgN/A
7:00 PM52 °FPassing clouds.No wind88%30.45 "HgN/A
6:30 PM52 °FPassing clouds.No wind94%30.45 "HgN/A
6:00 PM55 °FPassing clouds.1 mph82%30.45 "HgN/A
5:30 PM57 °FPassing clouds.1 mph82%30.45 "HgN/A
5:00 PM59 °FPassing clouds.2 mph77%30.45 "HgN/A
4:30 PM59 °FPassing clouds.6 mph77%30.45 "HgN/A
4:00 PM61 °FPassing clouds.6 mph72%30.45 "HgN/A
3:30 PM61 °FPassing clouds.6 mph72%30.45 "HgN/A
3:00 PM61 °FPassing clouds.6 mph72%30.45 "HgN/A
2:30 PM61 °FPassing clouds.7 mph77%30.45 "HgN/A
2:00 PM61 °FPassing clouds.6 mph83%30.45 "HgN/A
1:30 PM61 °FPassing clouds.6 mph72%30.48 "HgN/A
1:00 PM59 °FPassing clouds.7 mph77%30.48 "HgN/A
12:30 PM59 °FPassing clouds.6 mph77%30.48 "HgN/A
12:00 PM61 °FPassing clouds.3 mph77%30.51 "HgN/A
11:30 AM57 °FPassing clouds.No wind88%30.51 "HgN/A
11:00 AM54 °FPassing clouds.No wind100%30.51 "HgN/A
10:30 AM50 °FPassing clouds.No wind100%30.51 "HgN/A
10:00 AM46 °FSleet. Light fog.No wind100%30.51 "HgN/A
9:30 AM43 °FSleet. Cloudy.No wind100%30.51 "HgN/A
9:00 AM41 °FSleet. Cloudy.No wind93%30.51 "Hg2 mi
8:30 AM37 °FSleet. Cloudy.No wind100%30.48 "HgN/A
8:00 AM39 °FSleet. Fog.No wind100%30.48 "HgN/A
7:30 AM39 °FPassing clouds.No wind93%30.48 "HgN/A
7:00 AM39 °FPassing clouds.1 mph93%30.48 "HgN/A
6:30 AM39 °FPassing clouds.No wind100%30.48 "HgN/A
6:00 AM39 °FPassing clouds.1 mph100%30.45 "HgN/A
Weather by CustomWeather, © 2014

See weather overviewHow to use our weather pages